Weather in Podosinovets

Russia / Kirov Oblast     60°16′40″N   47°04′08″E
temp.,
°C
wind,
m/s
gust,
m/s
humid.,
%
clouds,
%
prec.,
mm/h
press.,
hPa
HPBL,
m
8 march, mon
mon800:00−12e4994100 0.6 997472
03:00−14ene4995100 0.9 996348
06:00−14ene41095100 0.6 995434
09:00−13ne4992100 0.9 996460
12:00−11ne4890100 0.3 997569
15:00−11nne4891100 0.6 999662
18:00−13nne4993100 0.3 1001611
21:00−15nne4994100 0.6 1004495
9 march, tue
tue900:00−17n3896100 0.1 1006352
03:00−21n3897100 0.1 1008275
06:00−25n389778 0.0 1011232
09:00−24n369473 0.0 1013291
12:00−21n369089 0.0 1015456
15:00−19n468894 0.0 1016607
18:00−24n2596100 0.0 1018108
21:00−26n239992 0.0 102178
10 march, wed
wed1000:00−28n239913 0.0 102229
03:00−29nnw22987 0.0 102220
06:00−30nw12990 0.0 102219
09:00−24wnw13937 0.0 1022215
12:00−19nw238798 0.0 1022460
15:00−17nw358899 0.1 1021561
18:00−20wnw379799 0.0 1021166
21:00−17wnw3119499 0.0 1020336
11 march, thu
thu1100:00−14nw41094100 0.4 1019502
03:00−12nw41194100 0.5 1019447
06:00−12nw51389100 0.3 1019564
09:00−11nnw6137295 0.3 1020634
12:00−8nw5107231 0.0 1020768
15:00−8nw5107641 0.0 1020860
18:00−12wnw4128636 0.0 1021461
21:00−14wnw4138917 0.0 1022363
12 march, fri
fri1200:00−16w310920 0.0 1023217
03:00−17w38910 0.0 1023186
06:00−17wsw389411 0.0 1023186
09:00−14wsw499039 0.0 1022298
12:00−9wsw51079100 0.0 1021640
15:00−7wsw597889 0.0 1020747
18:00−10sw3109085 0.0 1020295
21:00−13ssw3119350 0.0 1020344